Flag for Germany Weather past 2 weeks in Sankt Ingbert, Saarland, Germany

Now
68 °F

Overcast.


Feels Like: 68 °F
Forecast: 58 / 72 °F
Wind: 2 mph from Southeast

Location: Saarbruecken / Ensheim

Current Time: Sep 18, 2014 at 8:39:11 PM

Latest Report: Sep 18, 2014 at 8:00 PM


Visibility: 31 mi

Pressure: 29.85 "Hg

Humidity: 77%

Dew point: 61 °F

Location of Sankt IngbertLocation

Historic Weather in Sankt Ingbert — Graph

°F

Sankt Ingbert temperature yesterday

Maximum temperature yesterday: 77 °F (at 4:00 PM)
Minimum temperature yesterday: 56 °F (at 6:00 AM)
Average temperature yesterday: 65 °F

Past Weeks' High & Low Weather Summary

 TemperatureHumidityPressure
High77 °F (Sep 5, 6:00 PM)100% (Sep 6, 7:00 AM)30.19 "Hg (Sep 6, 7:00 AM)
Low46 °F (Sep 12, 6:00 AM)49% (Sep 8, 5:00 PM)29.82 "Hg (Sep 17, 6:00 PM)
Average61 °F82%30.01 "Hg
* Reported Sep 3 7:00 PM — Sep 18 7:00 PM, Sankt Ingbert, Weather by CustomWeather, © 2014

Note: Actual official high and low records may vary slightly from our data, if they occured in-between our weather recording intervals... More about our weather records

Advertising

Sankt Ingbert weather history for previous 24 hours

 ConditionsComfort  
Time TempWeatherWind HumidityBarometerVisibility
7:00 PM
Sep 18
70 °FOvercast.3 mph73%29.85 "Hg37 mi
6:00 PM71 °FPartly sunny.3 mph71%29.84 "Hg37 mi
5:00 PM72 °FOvercast.5 mph68%29.84 "Hg31 mi
4:00 PM74 °FOvercast.5 mph63%29.84 "Hg25 mi
3:00 PM75 °FPartly sunny.5 mph61%29.83 "Hg25 mi
2:00 PM76 °FPartly sunny.3 mph64%29.84 "Hg25 mi
1:00 PM72 °FOvercast.2 mph78%29.85 "Hg19 mi
12:00 PM69 °FPartly sunny.3 mph83%29.85 "Hg11 mi
11:00 AM64 °FLow clouds.3 mph94%29.87 "Hg9 mi
10:00 AM62 °FSprinkles. Low clouds.3 mph97%29.86 "Hg11 mi
9:00 AM61 °FSprinkles. Low clouds.1 mph95%29.88 "Hg6 mi
8:00 AM60 °FLight rain. Overcast.3 mph96%29.86 "Hg16 mi
7:00 AM60 °FOvercast.2 mph94%29.85 "Hg16 mi
6:00 AM60 °FOvercast.2 mph95%29.85 "Hg12 mi
5:00 AM61 °FOvercast.3 mph92%29.85 "Hg16 mi
4:00 AM61 °FThunderstorms. Overcast.2 mph95%29.86 "Hg9 mi
3:00 AM63 °FThundershowers. Overcast.3 mph87%29.88 "Hg6 mi
2:00 AM64 °FOvercast.3 mph80%29.84 "Hg22 mi
1:00 AM65 °FOvercast.5 mph76%29.85 "Hg22 mi
12:00 AM66 °FOvercast.5 mph73%29.85 "Hg22 mi
11:00 PM
Sep 17
65 °FOvercast.3 mph78%29.85 "Hg22 mi
10:00 PM68 °FOvercast.5 mph72%29.85 "Hg22 mi
9:00 PM66 °FOvercast.3 mph77%29.85 "Hg22 mi
8:00 PM70 °FOvercast.3 mph71%29.84 "Hg28 mi
Weather by CustomWeather, © 2014

See weather overviewHow to use our weather pages